Change the Weather History Date:

Saturday, January 28, 2006

  Actual Average Record
Temperature  
Mean Temperature 57 °F 49 °F  
Max Temperature 70 °F 60 °F 83 °F (1957)
Min Temperature 44 °F 37 °F 20 °F (1963)
Degree Days  
Heating Degree Days 8 17  
Month to date heating degree days 469  
Since 1 July heating degree days 1254  
Cooling Degree Days 0 0  
Month to date cooling degree days 0  
Year to date cooling degree days 0  
Growing Degree Days 7 (Base 50)    
Moisture  
Dew Point 51 °F    
Average Humidity 84    
Maximum Humidity 100    
Minimum Humidity 55    
Precipitation  
Precipitation 0.24 in 0.20 in 4.33 in (1994)
Month to date precipitation 5.10  
Year to date precipitation 5.10  
Sea Level Pressure  
Sea Level Pressure 30.22 in    
Wind  
Wind Speed 5 mph (SSE)    
Max Wind Speed 22 mph    
Max Gust Speed 29 mph    
Visibility 6 miles    
Events Fog , Rain    
T = Trace of Precipitation, MM = Missing Value Source: NWS Daily Summary

Daily Weather History Graph

Daily Weather History Graph

Search for Another Location

Airport or City:

Trip Planner

Search our weather history database for the weather conditions in past years. The results will help you decide how hot, cold, wet, or windy it might be!

Date:

Astronomy

Jan. 28, 2006 Rise Set
Actual Time 6:51 AM CST 5:28 PM CST
Civil Twilight 6:26 AM CST 5:54 PM CST
Nautical Twilight 5:56 AM CST 6:23 PM CST
Astronomical Twilight 5:28 AM CST 6:52 PM CST
Moon 6:21 AM CST (1/28) 4:30 PM CST (1/28)
Length of Visible Light 11h 28m
Length of Day
10h 36m
Waning Crescent, 1% of the Moon is Illuminated
Jan 28
Waning Crescent
Jan 29
New
Feb 5
First Quarter
Feb 12
Full
Feb 21
Last Quarter

Hourly Weather History & Observations

Time (CST) Temp. Windchill Dew Point Humidity Pressure Visibility Wind Dir Wind Speed Gust Speed Precip Events Conditions
12:53 AM 51.1 °F - 48.0 °F 89% 30.36 in 10.0 mi Calm Calm - N/A   Partly Cloudy
1:53 AM 48.9 °F - 46.9 °F 93% 30.35 in 7.0 mi Calm Calm - N/A   Partly Cloudy
2:26 AM 48.2 °F - 46.4 °F 93% 30.35 in 1.8 mi Calm Calm - N/A   Partly Cloudy
2:32 AM 46.4 °F - 46.4 °F 100% 30.35 in 0.5 mi Calm Calm - N/A Fog Fog
2:38 AM 48.2 °F - 46.4 °F 93% 30.34 in 0.2 mi Calm Calm - N/A Fog Fog
2:42 AM 46.4 °F - 46.4 °F 100% 30.34 in 0.2 mi Calm Calm - N/A Fog Fog
2:53 AM 46.9 °F - 46.0 °F 97% 30.34 in 0.2 mi Calm Calm - N/A Fog Fog
2:58 AM 46.4 °F - 44.6 °F 93% 30.34 in 0.5 mi Calm Calm - N/A Fog Fog
3:12 AM 46.4 °F - 44.6 °F 93% 30.34 in 0.2 mi Calm Calm - N/A Fog Fog
3:22 AM 44.6 °F - 44.6 °F 100% 30.34 in 1.0 mi Calm Calm - N/A   Mist
3:35 AM 44.6 °F 43.1 °F 42.8 °F 93% 30.34 in 3.0 mi SSE 3.5 mph - N/A   Mostly Cloudy
3:42 AM 44.6 °F - 42.8 °F 93% 30.34 in 8.0 mi Calm Calm - N/A   Scattered Clouds
3:53 AM 46.0 °F - 43.0 °F 89% 30.33 in 5.0 mi Calm Calm - N/A   Scattered Clouds
4:05 AM 44.6 °F - 42.8 °F 93% 30.33 in 7.0 mi Calm Calm - N/A   Mostly Cloudy
4:15 AM 44.6 °F - 42.8 °F 93% 30.33 in 4.0 mi Calm Calm - N/A   Scattered Clouds
4:17 AM 46.4 °F - 42.8 °F 87% 30.33 in 2.5 mi Calm Calm - N/A   Scattered Clouds
4:24 AM 46.4 °F - 44.6 °F 93% 30.33 in 1.2 mi Calm Calm - N/A   Scattered Clouds
4:43 AM 48.2 °F - 48.2 °F 100% 30.32 in 3.0 mi Calm Calm - N/A   Mostly Cloudy
4:53 AM 48.9 °F - 46.9 °F 93% 30.31 in 5.0 mi East 5.8 mph - N/A   Overcast
5:53 AM 51.1 °F - 48.9 °F 92% 30.32 in 7.0 mi ESE 3.5 mph - N/A   Scattered Clouds
6:53 AM 51.1 °F - 50.0 °F 96% 30.32 in 8.0 mi ESE 5.8 mph - N/A   Mostly Cloudy
7:53 AM 53.1 °F - 50.0 °F 89% 30.30 in 8.0 mi ESE 5.8 mph - N/A   Overcast
8:53 AM 57.0 °F - 52.0 °F 83% 30.30 in 10.0 mi SE 6.9 mph - N/A   Overcast
9:53 AM 63.0 °F - 54.0 °F 72% 30.28 in 10.0 mi SSE 15.0 mph 19.6 mph N/A   Mostly Cloudy
10:53 AM 69.1 °F - 54.0 °F 58% 30.24 in 10.0 mi SSE 18.4 mph - N/A   Overcast
11:53 AM 70.0 °F - 53.1 °F 55% 30.21 in 10.0 mi South 18.4 mph 25.3 mph N/A   Scattered Clouds
12:53 PM 70.0 °F - 54.0 °F 57% 30.17 in 10.0 mi SSE 19.6 mph 27.6 mph N/A   Overcast
1:53 PM 70.0 °F - 55.0 °F 59% 30.13 in 10.0 mi SSE 21.9 mph 26.5 mph N/A   Overcast
2:53 PM 68.0 °F - 55.0 °F 63% 30.11 in 10.0 mi SSE 18.4 mph 25.3 mph N/A   Overcast
3:53 PM 66.9 °F - 55.0 °F 66% 30.07 in 10.0 mi SSE 16.1 mph 23.0 mph N/A   Overcast
4:24 PM 66.2 °F - 55.4 °F 68% 30.07 in 10.0 mi South 19.6 mph 24.2 mph 0.00 in Rain Light Rain
4:53 PM 66.0 °F - 55.9 °F 70% 30.07 in 10.0 mi SSE 15.0 mph 23.0 mph 0.00 in   Overcast
5:22 PM 64.4 °F - 55.4 °F 73% 30.06 in 9.0 mi SSE 20.7 mph - N/A   Overcast
5:53 PM 66.0 °F - 55.9 °F 70% 30.06 in 10.0 mi SSE 17.3 mph 28.8 mph N/A   Overcast
6:10 PM 64.4 °F - 55.4 °F 73% 30.05 in 10.0 mi SSE 19.6 mph 27.6 mph N/A   Overcast
6:53 PM 64.9 °F - 55.9 °F 73% 30.03 in 10.0 mi SSE 18.4 mph - N/A   Overcast
7:53 PM 63.0 °F - 57.9 °F 84% 30.02 in 6.0 mi SSE 15.0 mph 21.9 mph 0.00 in Rain Light Rain
8:53 PM 62.1 °F - 59.0 °F 90% 30.01 in 6.0 mi SSE 15.0 mph - 0.00 in Rain Light Rain
9:04 PM 62.6 °F - 59.0 °F 88% 30.00 in 10.0 mi SSE 10.4 mph - 0.00 in   Overcast
9:53 PM 64.0 °F - 60.1 °F 87% 29.97 in 10.0 mi SSE 15.0 mph - 0.00 in   Overcast
10:53 PM 64.0 °F - 61.0 °F 90% 29.94 in 6.0 mi SSE 20.7 mph 26.5 mph 0.02 in Rain Rain
11:53 PM 64.0 °F - 61.0 °F 90% 29.93 in 5.0 mi South 16.1 mph 23.0 mph 0.22 in Rain Light Rain